Location: Bucquoy
(50.1391°N, 2.7097°E)
Time: 08:59:07
(UTC+00:00)

RESURS DK-1 - Pass Details

Date: 06 May 2021
Orbit: 553 x 564 km, 69.9° (Epoch: 21 June)

Event Time Altitude Azimuth Distance (km) Brightness Sun altitude
Rises 00:45:32 0° 329° (NNW) 2,765 6.5 -22.0°
Reaches altitude 10° 00:47:45 10° 330° (NNW) 1,866 5.6 -21.9°
Maximum altitude 00:51:56 83° 58° (ENE) 575 2.3 -21.7°
Enters shadow 00:52:39 60° 137° (SE) 648 2.4 -21.7°
